BMA31A EGGD-EGPH

Flight info

Callsign BMA31A
Flight time 0h 54m
Altitude 26000
Route BCN P69 DIZIM N864 KISWO/N0423F270 DCT AVTIC DCT ANJAK/N0429F280 N38 NOKIN UP16 RIBEL DCT INPIP
Aircraft A320/M-SDE3FGHIRWY/LB1

Departure

Time 2026-04-23 01:17
Airport Bristol Airport (EGGD)

Arrival

Time 2026-04-23 02:12
Airport Edinburgh Airport (EGPH)
Time Latitude Longitude Altitude Speed Heading
2026-04-23 00:40 51.38567 -2.70914 612 ft 0 kts 266°
2026-04-23 01:09 51.38568 -2.70898 627 ft 4 kts 262°
2026-04-23 01:09 51.38575 -2.70859 617 ft 4 kts 230°
2026-04-23 01:09 51.38594 -2.70840 612 ft 3 kts 178°
2026-04-23 01:09 51.38601 -2.70841 612 ft 0 kts 176°
2026-04-23 01:12 51.38587 -2.70839 612 ft 5 kts 176°
2026-04-23 01:13 51.38542 -2.70834 617 ft 9 kts 176°
2026-04-23 01:13 51.38484 -2.70833 613 ft 7 kts 196°
2026-04-23 01:13 51.38468 -2.70899 621 ft 9 kts 260°
2026-04-23 01:13 51.38462 -2.71023 622 ft 13 kts 266°
2026-04-23 01:14 51.38456 -2.71190 615 ft 18 kts 268°
2026-04-23 01:14 51.38447 -2.71405 618 ft 22 kts 266°
2026-04-23 01:14 51.38436 -2.71680 606 ft 28 kts 266°
2026-04-23 01:14 51.38428 -2.72003 609 ft 30 kts 272°
2026-04-23 01:15 51.38422 -2.72345 610 ft 31 kts 267°
2026-04-23 01:15 51.38407 -2.72697 618 ft 33 kts 265°
2026-04-23 01:15 51.38391 -2.73062 605 ft 21 kts 266°
2026-04-23 01:15 51.38383 -2.73236 616 ft 15 kts 259°
2026-04-23 01:16 51.38317 -2.73339 624 ft 13 kts 191°
2026-04-23 01:16 51.38234 -2.73325 621 ft 11 kts 167°
2026-04-23 01:16 51.38215 -2.73266 630 ft 0 kts 88°
2026-04-23 01:16 51.38219 -2.73137 631 ft 43 kts 86°
2026-04-23 01:17 51.38256 -2.72249 631 ft 114 kts 86°
2026-04-23 01:17 51.38297 -2.70706 764 ft 149 kts 88°
2026-04-23 01:17 51.38339 -2.69088 1381 ft 150 kts 86°
2026-04-23 01:17 51.38399 -2.67339 1858 ft 164 kts 86°
2026-04-23 01:18 51.38462 -2.65498 2513 ft 166 kts 86°
2026-04-23 01:18 51.38521 -2.63649 3163 ft 166 kts 90°
2026-04-23 01:18 51.38577 -2.61769 3757 ft 174 kts 90°
2026-04-23 01:18 51.38628 -2.59776 4345 ft 182 kts 90°
2026-04-23 01:19 51.38673 -2.57662 4876 ft 198 kts 91°
2026-04-23 01:19 51.39088 -2.55517 5464 ft 219 kts 57°
2026-04-23 01:19 51.40389 -2.54045 6033 ft 248 kts 20°
2026-04-23 01:19 51.42171 -2.54007 6663 ft 271 kts 346°
2026-04-23 01:20 51.43839 -2.55530 7355 ft 286 kts 317°
2026-04-23 01:20 51.45020 -2.58135 8071 ft 296 kts 300°
2026-04-23 01:20 51.46083 -2.61050 8707 ft 309 kts 300°
2026-04-23 01:20 51.47194 -2.64036 9527 ft 311 kts 301°
2026-04-23 01:21 51.48340 -2.66970 10464 ft 310 kts 302°
2026-04-23 01:21 51.49556 -2.69982 10825 ft 332 kts 303°
2026-04-23 01:21 51.50876 -2.73187 11089 ft 353 kts 303°
2026-04-23 01:21 51.52255 -2.76506 11693 ft 360 kts 303°
2026-04-23 01:22 51.53651 -2.79872 12403 ft 364 kts 303°
2026-04-23 01:22 51.55052 -2.83274 13138 ft 367 kts 303°
2026-04-23 01:22 51.56463 -2.86713 13845 ft 370 kts 303°
2026-04-23 01:22 51.57880 -2.90169 14550 ft 372 kts 303°
2026-04-23 01:23 51.59310 -2.93660 15222 ft 375 kts 303°
2026-04-23 01:23 51.60746 -2.97177 15871 ft 378 kts 303°
2026-04-23 01:23 51.62192 -3.00733 16505 ft 380 kts 303°
2026-04-23 01:23 51.63643 -3.04310 17127 ft 383 kts 303°
2026-04-23 01:24 51.65085 -3.07862 17739 ft 385 kts 303°
2026-04-23 01:24 51.66556 -3.11485 18357 ft 388 kts 303°
2026-04-23 01:24 51.68040 -3.15139 18953 ft 391 kts 303°
2026-04-23 01:24 51.69681 -3.18648 19580 ft 393 kts 314°
2026-04-23 01:25 51.71776 -3.21492 20190 ft 395 kts 327°
2026-04-23 01:25 51.74234 -3.23494 20793 ft 397 kts 341°
2026-04-23 01:25 51.76918 -3.24536 21388 ft 399 kts 354°
2026-04-23 01:25 51.79691 -3.24548 21938 ft 400 kts
2026-04-23 01:26 51.82457 -3.23884 22461 ft 403 kts
2026-04-23 01:26 51.85237 -3.23189 22972 ft 405 kts
2026-04-23 01:26 51.88033 -3.22488 23486 ft 407 kts
2026-04-23 01:26 51.90838 -3.21789 23967 ft 410 kts
2026-04-23 01:27 51.93670 -3.21087 24302 ft 412 kts
2026-04-23 01:27 51.96470 -3.20394 24385 ft 411 kts
2026-04-23 01:27 51.99301 -3.19698 24403 ft 411 kts
2026-04-23 01:27 52.02135 -3.19001 24403 ft 411 kts
2026-04-23 01:28 52.04975 -3.18463 24403 ft 411 kts
2026-04-23 01:28 52.07832 -3.18248 24403 ft 411 kts
2026-04-23 01:28 52.10697 -3.18030 24405 ft 411 kts
2026-04-23 01:28 52.13562 -3.17809 24412 ft 411 kts
2026-04-23 01:29 52.16418 -3.17585 24412 ft 411 kts
2026-04-23 01:29 52.19275 -3.17364 24412 ft 411 kts
2026-04-23 01:29 52.22103 -3.17142 24414 ft 411 kts
2026-04-23 01:29 52.24963 -3.16916 24421 ft 411 kts
2026-04-23 01:30 52.27815 -3.16695 24421 ft 410 kts
2026-04-23 01:30 52.30664 -3.16478 24421 ft 410 kts
2026-04-23 01:30 52.33514 -3.16264 24423 ft 410 kts
2026-04-23 01:30 52.36361 -3.16046 24431 ft 409 kts
2026-04-23 01:31 52.39209 -3.15825 24430 ft 410 kts
2026-04-23 01:31 52.42055 -3.15600 24431 ft 410 kts
2026-04-23 01:31 52.44903 -3.15377 24431 ft 409 kts
2026-04-23 01:31 52.47760 -3.15157 24439 ft 409 kts
2026-04-23 01:32 52.50604 -3.14938 24439 ft 409 kts
2026-04-23 01:32 52.53450 -3.14715 24439 ft 409 kts
2026-04-23 01:32 52.56259 -3.14494 24438 ft 409 kts
2026-04-23 01:32 52.59104 -3.14271 24448 ft 409 kts
2026-04-23 01:33 52.61948 -3.14047 24448 ft 409 kts
2026-04-23 01:33 52.64795 -3.13824 24449 ft 409 kts
2026-04-23 01:33 52.67640 -3.13599 24448 ft 409 kts
2026-04-23 01:33 52.70472 -3.13162 24448 ft 409 kts
2026-04-23 01:34 52.73232 -3.11986 24454 ft 410 kts 19°
2026-04-23 01:34 52.75854 -3.10119 24459 ft 410 kts 25°
2026-04-23 01:34 52.78436 -3.08098 24457 ft 410 kts 25°
2026-04-23 01:34 52.81013 -3.06085 24461 ft 410 kts 25°
2026-04-23 01:35 52.83590 -3.04074 24462 ft 409 kts 25°
2026-04-23 01:35 52.86166 -3.02060 24467 ft 409 kts 25°
2026-04-23 01:35 52.88740 -3.00044 24467 ft 409 kts 25°
2026-04-23 01:35 52.91369 -2.98263 24468 ft 408 kts 19°
2026-04-23 01:36 52.94036 -2.96637 24468 ft 409 kts 19°
2026-04-23 01:36 52.96689 -2.95019 24864 ft 412 kts 19°
2026-04-23 01:36 52.99387 -2.93372 25340 ft 414 kts 19°
2026-04-23 01:36 53.02098 -2.91714 25783 ft 416 kts 19°
2026-04-23 01:37 53.04821 -2.90043 26196 ft 418 kts 19°
2026-04-23 01:37 53.07559 -2.88356 26427 ft 420 kts 19°
2026-04-23 01:37 53.10299 -2.86666 26476 ft 421 kts 19°
2026-04-23 01:37 53.13042 -2.84970 26474 ft 421 kts 19°
2026-04-23 01:38 53.14860 -2.83844 26478 ft 421 kts 19°
2026-04-23 01:38 53.17599 -2.82147 26485 ft 420 kts 19°
2026-04-23 01:38 53.20344 -2.80444 26485 ft 420 kts 19°
2026-04-23 01:38 53.23080 -2.78745 26485 ft 420 kts 19°
2026-04-23 01:39 53.25821 -2.77040 26485 ft 420 kts 19°
2026-04-23 01:39 53.28561 -2.75333 26486 ft 420 kts 19°
2026-04-23 01:39 53.31295 -2.73630 26485 ft 420 kts 19°
2026-04-23 01:39 53.34032 -2.71927 26483 ft 419 kts 19°
2026-04-23 01:40 53.36766 -2.70222 26482 ft 419 kts 19°
2026-04-23 01:40 53.39498 -2.68512 26485 ft 419 kts 19°
2026-04-23 01:40 53.42228 -2.66797 26486 ft 419 kts 19°
2026-04-23 01:40 53.44959 -2.65080 26490 ft 419 kts 19°
2026-04-23 01:41 53.47688 -2.63361 26494 ft 419 kts 19°
2026-04-23 01:41 53.50415 -2.61641 26497 ft 418 kts 19°
2026-04-23 01:41 53.53136 -2.59922 26497 ft 418 kts 19°
2026-04-23 01:41 53.55859 -2.58201 26498 ft 418 kts 19°
2026-04-23 01:42 53.58547 -2.56500 26499 ft 418 kts 19°
2026-04-23 01:42 53.61273 -2.54778 26499 ft 418 kts 19°
2026-04-23 01:42 53.63993 -2.53059 26500 ft 417 kts 19°
2026-04-23 01:42 53.66712 -2.51337 26502 ft 417 kts 19°
2026-04-23 01:43 53.69428 -2.49611 26504 ft 417 kts 19°
2026-04-23 01:43 53.72139 -2.47888 26505 ft 417 kts 19°
2026-04-23 01:43 53.74852 -2.46159 26507 ft 416 kts 19°
2026-04-23 01:43 53.77557 -2.44435 26509 ft 416 kts 19°
2026-04-23 01:44 53.80264 -2.42707 26509 ft 416 kts 19°
2026-04-23 01:44 53.82969 -2.40976 26510 ft 415 kts 19°
2026-04-23 01:44 53.85675 -2.39238 26509 ft 416 kts 19°
2026-04-23 01:44 53.88378 -2.37500 26510 ft 415 kts 19°
2026-04-23 01:45 53.91044 -2.35789 26516 ft 415 kts 19°
2026-04-23 01:45 53.93776 -2.34032 26515 ft 415 kts 19°
2026-04-23 01:45 53.96438 -2.32333 26516 ft 414 kts 17°
2026-04-23 01:45 53.99229 -2.31186 26519 ft 412 kts
2026-04-23 01:46 54.02080 -2.30948 26520 ft 410 kts 356°
2026-04-23 01:46 54.04901 -2.31609 26520 ft 409 kts 346°
2026-04-23 01:46 54.07604 -2.33111 26518 ft 409 kts 338°
2026-04-23 01:46 54.10242 -2.34939 26516 ft 409 kts 338°
2026-04-23 01:47 54.12881 -2.36763 26514 ft 409 kts 338°
2026-04-23 01:47 54.15526 -2.38588 26512 ft 410 kts 338°
2026-04-23 01:47 54.18169 -2.40415 26511 ft 410 kts 338°
2026-04-23 01:47 54.20811 -2.42245 26508 ft 410 kts 338°
2026-04-23 01:48 54.23423 -2.44059 26507 ft 410 kts 338°
2026-04-23 01:48 54.26064 -2.45899 26505 ft 410 kts 338°
2026-04-23 01:48 54.28709 -2.47746 26506 ft 411 kts 338°
2026-04-23 01:48 54.31355 -2.49599 26506 ft 411 kts 338°
2026-04-23 01:49 54.34004 -2.51458 26503 ft 412 kts 338°
2026-04-23 01:49 54.36656 -2.53320 26501 ft 412 kts 338°
2026-04-23 01:49 54.39310 -2.55185 26502 ft 412 kts 338°
2026-04-23 01:49 54.41965 -2.57052 26501 ft 413 kts 338°
2026-04-23 01:50 54.44625 -2.58920 26503 ft 413 kts 338°
2026-04-23 01:50 54.47289 -2.60798 26502 ft 413 kts 337°
2026-04-23 01:50 54.49952 -2.62681 26503 ft 414 kts 337°
2026-04-23 01:50 54.52617 -2.64570 26504 ft 414 kts 337°
2026-04-23 01:51 54.55285 -2.66463 26502 ft 415 kts 337°
2026-04-23 01:51 54.57956 -2.68363 26502 ft 415 kts 337°
2026-04-23 01:51 54.60592 -2.70238 26499 ft 415 kts 337°
2026-04-23 01:51 54.63268 -2.72143 26498 ft 416 kts 337°
2026-04-23 01:52 54.65943 -2.74045 26496 ft 416 kts 337°
2026-04-23 01:52 54.68621 -2.75951 26494 ft 417 kts 337°
2026-04-23 01:52 54.71308 -2.77860 26495 ft 417 kts 337°
2026-04-23 01:52 54.73991 -2.79774 26496 ft 417 kts 337°
2026-04-23 01:53 54.76678 -2.81698 26496 ft 417 kts 337°
2026-04-23 01:53 54.79336 -2.83605 26494 ft 411 kts 337°
2026-04-23 01:53 54.81976 -2.85502 26495 ft 410 kts 337°
2026-04-23 01:53 54.84608 -2.87397 26494 ft 410 kts 337°
2026-04-23 01:54 54.87242 -2.89292 26495 ft 410 kts 337°
2026-04-23 01:54 54.89842 -2.91165 26120 ft 412 kts 337°
2026-04-23 01:54 54.92497 -2.93085 25407 ft 412 kts 337°
2026-04-23 01:54 54.95130 -2.94992 24837 ft 408 kts 337°
2026-04-23 01:55 54.97740 -2.96887 24267 ft 405 kts 337°
2026-04-23 01:55 55.00335 -2.98772 23698 ft 403 kts 337°
2026-04-23 01:55 55.02921 -3.00657 23126 ft 402 kts 337°
2026-04-23 01:55 55.05497 -3.02534 22558 ft 400 kts 337°
2026-04-23 01:56 55.08064 -3.04401 22000 ft 399 kts 337°
2026-04-23 01:56 55.10627 -3.06270 21429 ft 399 kts 337°
2026-04-23 01:56 55.13186 -3.08141 20867 ft 398 kts 336°
2026-04-23 01:56 55.15704 -3.09984 20279 ft 397 kts 336°
2026-04-23 01:57 55.18291 -3.11878 19241 ft 409 kts 337°
2026-04-23 01:57 55.20905 -3.13798 18736 ft 405 kts 336°
2026-04-23 01:57 55.23461 -3.15682 18551 ft 392 kts 336°
2026-04-23 01:57 55.25930 -3.17499 18428 ft 377 kts 336°
2026-04-23 01:58 55.28312 -3.19253 18298 ft 363 kts 336°
2026-04-23 01:58 55.30529 -3.21055 18011 ft 342 kts 329°
2026-04-23 01:58 55.32558 -3.23125 17434 ft 334 kts 329°
2026-04-23 01:58 55.34552 -3.25170 16770 ft 330 kts 329°
2026-04-23 01:59 55.36522 -3.27197 16085 ft 327 kts 328°
2026-04-23 01:59 55.38473 -3.29210 15379 ft 324 kts 328°
2026-04-23 01:59 55.40408 -3.31207 14758 ft 320 kts 328°
2026-04-23 01:59 55.42310 -3.33173 14191 ft 314 kts 328°
2026-04-23 02:00 55.44184 -3.35109 13561 ft 310 kts 328°
2026-04-23 02:00 55.46041 -3.37026 12930 ft 308 kts 328°
2026-04-23 02:00 55.47879 -3.38922 12294 ft 305 kts 328°
2026-04-23 02:00 55.49710 -3.40811 11668 ft 303 kts 328°
2026-04-23 02:01 55.51520 -3.42684 11046 ft 301 kts 328°
2026-04-23 02:01 55.53314 -3.44547 10434 ft 298 kts 328°
2026-04-23 02:01 55.55072 -3.46374 9819 ft 295 kts 329°
2026-04-23 02:01 55.56840 -3.48211 9203 ft 294 kts 329°
2026-04-23 02:02 55.58597 -3.50039 8602 ft 293 kts 329°
2026-04-23 02:02 55.60349 -3.51866 8200 ft 291 kts 329°
2026-04-23 02:02 55.62093 -3.53680 7803 ft 290 kts 329°
2026-04-23 02:02 55.63821 -3.55485 7391 ft 286 kts 328°
2026-04-23 02:03 55.65306 -3.57760 6785 ft 282 kts 309°
2026-04-23 02:03 55.66635 -3.60310 6202 ft 280 kts 315°
2026-04-23 02:03 55.68053 -3.62614 5761 ft 274 kts 318°
2026-04-23 02:03 55.69492 -3.64791 5257 ft 270 kts 320°
2026-04-23 02:04 55.70936 -3.66819 4919 ft 260 kts 322°
2026-04-23 02:04 55.72352 -3.68768 4769 ft 253 kts 322°
2026-04-23 02:04 55.73710 -3.70653 4638 ft 243 kts 322°
2026-04-23 02:04 55.74979 -3.72442 4494 ft 236 kts 321°
2026-04-23 02:05 55.76224 -3.74338 4287 ft 230 kts 317°
2026-04-23 02:05 55.77408 -3.76155 4136 ft 221 kts 330°
2026-04-23 02:05 55.78831 -3.77070 4041 ft 217 kts 355°
2026-04-23 02:05 55.80311 -3.76882 4006 ft 213 kts 20°
2026-04-23 02:06 55.81610 -3.75687 4000 ft 210 kts 43°
2026-04-23 02:06 55.82533 -3.73729 4009 ft 206 kts 62°
2026-04-23 02:06 55.83275 -3.71562 3995 ft 200 kts 62°
2026-04-23 02:06 55.83989 -3.69485 3950 ft 194 kts 62°
2026-04-23 02:07 55.84687 -3.67450 3753 ft 191 kts 62°
2026-04-23 02:07 55.85378 -3.65437 3518 ft 190 kts 61°
2026-04-23 02:07 55.86062 -3.63442 3272 ft 188 kts 61°
2026-04-23 02:07 55.86732 -3.61489 3028 ft 187 kts 61°
2026-04-23 02:08 55.87408 -3.59515 2781 ft 186 kts 61°
2026-04-23 02:08 55.88078 -3.57557 2565 ft 182 kts 60°
2026-04-23 02:08 55.88717 -3.55694 2306 ft 171 kts 60°
2026-04-23 02:08 55.89310 -3.53963 2074 ft 156 kts 60°
2026-04-23 02:09 55.89846 -3.52392 1896 ft 141 kts 60°
2026-04-23 02:09 55.90346 -3.50929 1704 ft 135 kts 59°
2026-04-23 02:09 55.90829 -3.49496 1513 ft 135 kts 59°
2026-04-23 02:09 55.91314 -3.48094 1313 ft 132 kts 59°
2026-04-23 02:10 55.91790 -3.46695 1108 ft 131 kts 59°
2026-04-23 02:10 55.92259 -3.45305 928 ft 131 kts 59°
2026-04-23 02:10 55.92735 -3.43920 788 ft 131 kts 59°
2026-04-23 02:10 55.93212 -3.42532 650 ft 131 kts 59°
2026-04-23 02:11 55.93685 -3.41140 476 ft 131 kts 59°
2026-04-23 02:11 55.94157 -3.39747 290 ft 131 kts 59°
2026-04-23 02:11 55.94628 -3.38350 132 ft 131 kts 59°
2026-04-23 02:11 55.95042 -3.37126 112 ft 94 kts 59°
2026-04-23 02:12 55.95289 -3.36393 111 ft 44 kts 59°
2026-04-23 02:12 55.95392 -3.36086 111 ft 27 kts 58°
2026-04-23 02:12 55.95477 -3.35842 112 ft 16 kts 62°
2026-04-23 02:12 55.95532 -3.35665 113 ft 12 kts 62°
2026-04-23 02:13 55.95538 -3.35492 114 ft 16 kts 104°
2026-04-23 02:13 55.95453 -3.35403 115 ft 16 kts 176°
2026-04-23 02:13 55.95372 -3.35575 114 ft 20 kts 239°
2026-04-23 02:13 55.95293 -3.35808 116 ft 24 kts 238°
2026-04-23 02:14 55.95226 -3.36006 114 ft 19 kts 239°
2026-04-23 02:14 55.95168 -3.36179 115 ft 12 kts 239°
2026-04-23 02:14 55.95127 -3.36306 115 ft 11 kts 239°
2026-04-23 02:14 55.95094 -3.36393 116 ft 8 kts 223°
2026-04-23 02:15 55.95015 -3.36401 114 ft 2 kts 223°
2026-04-23 02:15 55.95006 -3.36422 114 ft 0 kts 238°